Cheraw, SC

10:56 PM EST on February 25, 2018 (GMT -0500)
Cheraw

Weather History for KCQW - March, 2014

Change the Weather History Date:

Tuesday, March 25, 2014

  Actual Average (KFLO) Record (KFLO)
Temperature  
Mean Temperature 40 °F -  
Max Temperature 44 °F 66 °F 89 °F (2007)
Min Temperature 35 °F 44 °F 27 °F (1956)
Degree Days  
Heating Degree Days 26    
Moisture  
Dew Point 34 °F    
Average Humidity 80    
Maximum Humidity 93    
Minimum Humidity 52    
Precipitation  
Precipitation 0.06 in - - ()
Sea Level Pressure  
Sea Level Pressure 29.92 in    
Wind  
Wind Speed - (North)    
Max Wind Speed -    
Max Gust Speed -    
Visibility 10 miles    
Events Rain    
Averages and records for this station are not official NWS values.
T = Trace of Precipitation, MM = Missing Value Source: NWS Daily Summary

Daily Weather History Graph

Daily Weather History Graph

Search for Another Location

Airport or City:

Trip Planner

Search our weather history database for the weather conditions in past years. The results will help you decide how hot, cold, wet, or windy it might be!

Date:

Astronomy

Mar. 25, 2014 Rise Set
Actual Time 7:16 AM EDT 7:35 PM EDT
Civil Twilight 6:51 AM EDT 8:00 PM EDT
Nautical Twilight 6:21 AM EDT 8:30 PM EDT
Astronomical Twilight 5:51 AM EDT 9:00 PM EDT
Moon 3:24 AM EDT (3/25) 2:16 PM EDT (3/25)
Length of Visible Light 13h 09m
Length of Day
12h 18m
Waning Crescent, 32% of the Moon is Illuminated
Mar 25
Waning Crescent
Mar 30
New
Apr 7
First Quarter
Apr 15
Full
Apr 22
Last Quarter

Hourly Weather History & Observations

Time (EDT) Temp. Dew Point Humidity Pressure Visibility Wind Dir Wind Speed Gust Speed Precip Events Conditions
12:15 AM 39.2 °F 32.0 °F 75% 30.09 in 10.0 mi North - - N/A   Mostly Cloudy
12:35 AM 39.2 °F 32.0 °F 75% 30.09 in 10.0 mi North - - N/A   Scattered Clouds
12:55 AM 39.2 °F 33.8 °F 81% 30.09 in 10.0 mi North - - N/A   Mostly Cloudy
1:15 AM 39.2 °F 33.8 °F 81% 30.09 in 10.0 mi North - - N/A   Mostly Cloudy
1:35 AM 39.2 °F 33.8 °F 81% 30.07 in 10.0 mi North - - N/A   Partly Cloudy
1:55 AM 39.2 °F 32.0 °F 75% 30.07 in 10.0 mi North - - N/A   Partly Cloudy
2:15 AM 39.2 °F 32.0 °F 75% 30.05 in 10.0 mi North - - N/A   Partly Cloudy
2:35 AM 39.2 °F 32.0 °F 75% 30.04 in 10.0 mi North - - N/A   Partly Cloudy
2:55 AM 37.4 °F 32.0 °F 81% 30.03 in 10.0 mi North - - N/A   Scattered Clouds
3:15 AM 37.4 °F 32.0 °F 81% 30.02 in 10.0 mi North - - N/A   Mostly Cloudy
3:35 AM 37.4 °F 32.0 °F 81% 30.00 in 10.0 mi North - - N/A   Mostly Cloudy
3:55 AM 37.4 °F 32.0 °F 81% 30.00 in 10.0 mi North - - N/A   Mostly Cloudy
4:15 AM 37.4 °F 32.0 °F 81% 30.00 in 10.0 mi North - - N/A   Mostly Cloudy
4:35 AM 37.4 °F 32.0 °F 81% 29.98 in 10.0 mi North - - N/A   Mostly Cloudy
4:55 AM 35.6 °F 32.0 °F 87% 29.97 in 10.0 mi North - - N/A   Mostly Cloudy
5:15 AM 35.6 °F 32.0 °F 87% 29.97 in 10.0 mi North - - N/A   Mostly Cloudy
5:35 AM 37.4 °F 32.0 °F 81% 29.97 in 10.0 mi North - - N/A   Overcast
5:55 AM 37.4 °F 32.0 °F 81% 29.96 in 10.0 mi North - - N/A   Overcast
6:15 AM 37.4 °F 35.6 °F 93% 29.97 in 10.0 mi North - - N/A   Overcast
6:35 AM 37.4 °F 35.6 °F 93% 29.94 in 10.0 mi North - - N/A   Mostly Cloudy
6:55 AM 37.4 °F 33.8 °F 87% 29.93 in 10.0 mi North - - N/A   Mostly Cloudy
7:15 AM 35.6 °F 32.0 °F 87% 29.92 in 10.0 mi North - - N/A   Mostly Cloudy
7:35 AM 37.4 °F 32.0 °F 81% 29.88 in 10.0 mi North - - N/A   Mostly Cloudy
7:55 AM 39.2 °F 32.0 °F 75% 29.88 in 10.0 mi North - - N/A   Partly Cloudy
8:15 AM 39.2 °F 32.0 °F 75% 29.89 in 10.0 mi North - - N/A   Scattered Clouds
8:35 AM 41.0 °F 33.8 °F 76% 29.93 in 10.0 mi North - - N/A   Mostly Cloudy
8:55 AM 41.0 °F 35.6 °F 81% 29.94 in 10.0 mi North - - N/A   Mostly Cloudy
9:15 AM 41.0 °F 35.6 °F 81% 29.93 in 10.0 mi North - - N/A   Mostly Cloudy
9:35 AM 41.0 °F 35.6 °F 81% 29.94 in 10.0 mi North - - N/A   Mostly Cloudy
9:55 AM 41.0 °F 35.6 °F 81% 29.95 in 10.0 mi North - - N/A   Mostly Cloudy
10:15 AM 41.0 °F 37.4 °F 87% 29.90 in 8.0 mi North - - N/A Rain Light Rain
10:35 AM 41.0 °F 35.6 °F 81% 29.90 in 10.0 mi North - - N/A   Mostly Cloudy
10:55 AM 41.0 °F 37.4 °F 87% 29.93 in 9.0 mi North - - N/A Rain Light Rain
11:15 AM 39.2 °F 37.4 °F 93% 29.92 in 5.0 mi North - - 0.01 in Rain Light Rain
11:35 AM 39.2 °F 37.4 °F 93% 29.91 in 7.0 mi North - - 0.01 in Rain Light Rain
11:55 AM 41.0 °F 39.2 °F 93% 29.88 in 10.0 mi North - - 0.01 in   Mostly Cloudy
12:15 PM 41.0 °F 39.2 °F 93% 29.87 in 10.0 mi North - - N/A   Mostly Cloudy
12:35 PM 41.0 °F 37.4 °F 87% 29.85 in 10.0 mi North - - N/A   Overcast
12:55 PM 42.8 °F 37.4 °F 81% 29.84 in 10.0 mi North - - N/A   Mostly Cloudy
1:15 PM 42.8 °F 37.4 °F 81% 29.83 in 10.0 mi North - - N/A   Mostly Cloudy
1:35 PM 42.8 °F 37.4 °F 81% 29.81 in 10.0 mi North - - N/A   Overcast
1:55 PM 42.8 °F 37.4 °F 81% 29.81 in 10.0 mi North - - N/A   Overcast
2:15 PM 42.8 °F 37.4 °F 81% 29.81 in 10.0 mi North - - N/A   Overcast
2:35 PM 44.6 °F 37.4 °F 76% 29.80 in 10.0 mi North - - N/A   Overcast
2:55 PM 44.6 °F 37.4 °F 76% 29.79 in 10.0 mi North - - N/A   Mostly Cloudy
3:15 PM 44.6 °F 37.4 °F 76% 29.80 in 10.0 mi North - - N/A   Overcast
3:35 PM 44.6 °F 37.4 °F 76% 29.79 in 10.0 mi North - - N/A   Overcast
3:55 PM 42.8 °F 37.4 °F 81% 29.79 in 10.0 mi North - - N/A   Overcast
4:15 PM 41.0 °F 37.4 °F 87% 29.79 in 10.0 mi North - - N/A   Overcast
4:35 PM 44.6 °F 37.4 °F 76% 29.79 in 10.0 mi North - - N/A   Mostly Cloudy
4:55 PM 44.6 °F 37.4 °F 76% 29.80 in 10.0 mi North - - N/A   Overcast
5:15 PM 41.0 °F 37.4 °F 87% 29.82 in 2.5 mi North - - 0.02 in Rain Rain
5:35 PM 39.2 °F 35.6 °F 87% 29.82 in 10.0 mi North - - 0.04 in Rain Light Rain
5:55 PM 39.2 °F 37.4 °F 93% 29.83 in 3.0 mi North - - 0.05 in Rain Light Rain
6:15 PM 39.2 °F 37.4 °F 93% 29.82 in 10.0 mi North - - N/A   Partly Cloudy
6:35 PM 41.0 °F 37.4 °F 87% 29.83 in 10.0 mi North - - N/A   Scattered Clouds
6:55 PM 41.0 °F 39.2 °F 93% 29.84 in 10.0 mi North - - N/A   Scattered Clouds
7:15 PM 41.0 °F 37.4 °F 87% 29.85 in 10.0 mi North - - N/A   Partly Cloudy
7:35 PM 39.2 °F 35.6 °F 87% 29.87 in 10.0 mi North - - N/A   Clear
7:55 PM 39.2 °F 35.6 °F 87% 29.88 in 10.0 mi North - - N/A   Scattered Clouds
8:15 PM 39.2 °F 35.6 °F 87% 29.89 in 10.0 mi North - - N/A   Scattered Clouds
8:35 PM 37.4 °F 33.8 °F 87% 29.90 in 10.0 mi North - - N/A   Partly Cloudy
8:55 PM 37.4 °F 32.0 °F 81% 29.91 in 10.0 mi North - - N/A   Clear
9:15 PM 37.4 °F 32.0 °F 81% 29.92 in 10.0 mi North - - N/A   Partly Cloudy
9:35 PM 37.4 °F 26.6 °F 65% 29.94 in 10.0 mi North - - N/A   Partly Cloudy
9:55 PM 37.4 °F 24.8 °F 60% 29.95 in 10.0 mi North - - N/A   Partly Cloudy
10:15 PM 37.4 °F 23.0 °F 56% 29.97 in 10.0 mi North - - N/A   Clear
10:35 PM 37.4 °F 23.0 °F 56% 29.98 in 10.0 mi North - - N/A   Clear
10:55 PM 37.4 °F 23.0 °F 56% 29.99 in 10.0 mi North - - N/A   Clear
11:15 PM 37.4 °F 23.0 °F 56% 30.00 in 10.0 mi North - - N/A   Clear
11:35 PM 37.4 °F 21.2 °F 52% 30.01 in 10.0 mi North - - N/A   Clear
11:55 PM 35.6 °F 23.0 °F 60% 30.02 in 10.0 mi North - - N/A   Clear